User: anonymous   Login
Location: Plymouth
(43.7570°N, 71.6890°W)
Time: 23:31:42
(UTC-04:00)
Language:

Meteor 1-28 Rocket - Orbit

View from above orbital plane
View from above orbital plane
View from above satellite
View from above satellite

Ground track
Ground track

The orbit data is extracted from the following two-line orbital elements,

1 10114U 77057B   14297.77564747  .00004585  00000-0  25605-3 0  3822
2 10114 097.2512 152.0185 0016775 091.5307 268.7847 15.13876869 37161
Epoch (UTC): 24 October 2014 18:36:55
Eccentricity: 0.0016775
inclination: 97.2512°
perigee height: 513 km
apogee height: 536 km
right ascension of ascending node: 152.0185°
argument of perigee: 91.5307°
revolutions per day: 15.13876869
mean anomaly at epoch: 268.7847°
orbit number at epoch: 3716

The dashed part of the orbit path shows where the satellite is in the earth's shadow,  

DLR